Location: DARK SKY Beskydy - Park tmavé oblohy, www.darkskybeskydy.cz
(49.4926°N, 18.5016°E)
Time: 12:19:30
(UTC+02:00)

Vanguard 1 - Pass Details

Date: 22 February 2024
Orbit: 653 x 3825 km, 34.2° (Epoch: 12 April)

Event Time Altitude Azimuth Distance (km) Brightness Sun altitude
Rises 17:13:19 0° 174° (S) 5,334 14.0 -0.4°
Reaches altitude 10° 17:19:05 10° 152° (SSE) 4,984 13.5 -1.3°
Maximum altitude 17:25:51 14° 125° (SE) 5,262 13.4 -2.4°
Drops below altitude 10° 17:34:01 10° 99° (E) 6,275 13.6 -3.7°
Enters shadow 17:39:39 - 87° (E) 7,166 13.8 -4.5°
Sets 17:43:19 0° 81° (E) 7,776 - -5.1°
